Weather History for Nashua, NH

Change the Weather History Date:

Monday, October 29, 2012

  Actual Average Record
Temperature  
Mean Temperature 56 °F -  
Max Temperature 63 °F 58 °F 76 °F (1971)
Min Temperature 50 °F 31 °F 19 °F (1969)
Degree Days  
Heating Degree Days 8    
Growing Degree Days 6 (Base 50)    
Moisture  
Dew Point 54 °F    
Average Humidity 91    
Maximum Humidity 94    
Minimum Humidity 88    
Precipitation  
Precipitation 1.74 in - - ()
Sea Level Pressure  
Sea Level Pressure 29.51 in    
Wind  
Wind Speed 13 mph (ENE)    
Max Wind Speed 33 mph    
Max Gust Speed 47 mph    
Visibility 2 miles    
Events Fog , Rain    
Averages and records for this station are not official NWS values.
T = Trace of Precipitation, MM = Missing Value Source: NWS Daily Summary

Daily Weather History Graph

Daily Weather History Graph

Search for Another Location

Airport:

Trip Planner

Search our weather history database for the weather conditions in past years. The results will help you decide how hot, cold, wet, or windy it might be!

Date:

Astronomy

Oct. 29, 2012 Rise Set
Actual Time 7:16 AM EDT 5:41 PM EDT
Civil Twilight 6:47 AM EDT 6:11 PM EDT
Nautical Twilight 6:14 AM EDT 6:44 PM EDT
Astronomical Twilight 5:41 AM EDT 7:17 PM EDT
Moon 5:31 PM EDT (10/29) 7:05 AM EDT (10/29)
Length of Visible Light 11h 23m
Length of Day
10h 24m
Full, 100% of the Moon is Illuminated
Oct 29
Full
Oct 29
Full
Nov 6
Last Quarter
Nov 13
New
Nov 20
First Quarter

Hourly Weather History & Observations

Time (EDT) Temp. Dew Point Humidity Pressure Visibility Wind Dir Wind Speed Gust Speed Precip Events Conditions
12:51 AM 50.0 °F 47.8 °F 92% 29.82 in 4.0 mi Variable 4.6 mph - N/A   Overcast
1:04 AM 50.0 °F 48.2 °F 94% 29.80 in 2.5 mi NNE 8.1 mph - 0.00 in Rain Light Rain
1:15 AM 50.0 °F 48.2 °F 94% 29.80 in 1.8 mi NNE 8.1 mph - 0.00 in Rain Light Rain
1:23 AM 50.0 °F 48.2 °F 94% 29.80 in 2.0 mi NNE 6.9 mph - 0.00 in Rain Light Rain
1:51 AM 50.0 °F 47.8 °F 92% 29.80 in 2.0 mi NNE 10.4 mph - 0.00 in Rain Light Rain
2:08 AM 50.0 °F 48.2 °F 94% 29.78 in 3.0 mi NNE 8.1 mph - 0.00 in Rain Light Rain
2:28 AM 50.0 °F 48.2 °F 94% 29.78 in 2.0 mi NNE 8.1 mph - 0.00 in Rain Light Rain
2:51 AM 50.0 °F 47.8 °F 92% 29.78 in 2.5 mi NNE 6.9 mph - 0.00 in Rain Light Rain
2:59 AM 51.8 °F 48.2 °F 88% 29.77 in 3.0 mi NE 8.1 mph - 0.00 in Rain Light Rain
3:09 AM 51.8 °F 48.2 °F 88% 29.76 in 2.5 mi NNE 8.1 mph - 0.00 in Rain Light Rain
3:24 AM 51.8 °F 48.2 °F 88% 29.75 in 3.0 mi NNE 10.4 mph - 0.00 in Rain Light Rain
3:32 AM 51.8 °F 48.2 °F 88% 29.74 in 2.5 mi NNE 8.1 mph - 0.00 in Rain Light Rain
3:51 AM 50.9 °F 48.9 °F 93% 29.74 in 1.8 mi NNE 6.9 mph - 0.00 in Rain Light Rain
4:51 AM 50.9 °F 48.9 °F 93% 29.73 in 1.8 mi NNE 6.9 mph - 0.02 in Rain Light Rain
5:39 AM 51.8 °F 48.2 °F 88% 29.70 in 2.0 mi NNE 6.9 mph - 0.01 in Rain Light Rain
5:51 AM 50.9 °F 48.9 °F 93% 29.70 in 2.5 mi NNE 10.4 mph - 0.01 in Rain Light Rain
6:42 AM 51.8 °F 50.0 °F 94% 29.67 in 1.5 mi NNE 9.2 mph - 0.01 in Rain Light Rain
6:51 AM 52.0 °F 50.0 °F 93% 29.67 in 1.8 mi NE 11.5 mph - 0.01 in Rain Light Rain
7:12 AM 51.8 °F 50.0 °F 94% 29.66 in 2.0 mi NE 9.2 mph 21.9 mph 0.00 in Rain Light Rain
7:26 AM 51.8 °F 50.0 °F 94% 29.66 in 1.5 mi NE 10.4 mph - 0.01 in Rain Light Rain
7:37 AM 51.8 °F 50.0 °F 94% 29.66 in 1.0 mi NE 9.2 mph - 0.01 in Rain Light Rain
7:51 AM 52.0 °F 50.0 °F 93% 29.67 in 1.2 mi Variable 5.8 mph - 0.02 in Rain Light Rain
8:00 AM 51.8 °F 50.0 °F 94% 29.66 in 1.0 mi NNE 10.4 mph - 0.01 in Rain Light Rain
8:10 AM 53.6 °F 51.8 °F 94% 29.66 in 1.2 mi NNE 8.1 mph - 0.01 in Rain Light Rain
8:51 AM 54.0 °F 52.0 °F 93% 29.65 in 0.8 mi NNE 8.1 mph - 0.04 in Rain Rain
8:59 AM 53.6 °F 51.8 °F 94% 29.64 in 1.2 mi NE 10.4 mph - 0.01 in Rain Light Rain
9:09 AM 53.6 °F 51.8 °F 94% 29.64 in 1.2 mi NE 10.4 mph - 0.01 in Rain Light Rain
9:12 AM 55.4 °F 51.8 °F 88% 29.64 in 1.0 mi NE 12.7 mph - 0.01 in Rain Light Rain
9:31 AM 55.4 °F 51.8 °F 88% 29.63 in 1.2 mi ENE 11.5 mph - 0.03 in Rain Light Rain
9:51 AM 54.9 °F 52.9 °F 93% 29.63 in 1.0 mi NE 15.0 mph - 0.05 in Rain Light Rain
9:54 AM 55.4 °F 51.8 °F 88% 29.61 in 1.5 mi ENE 12.7 mph - 0.00 in Rain Light Rain
10:13 AM 55.4 °F 51.8 °F 88% 29.60 in 1.2 mi ENE 10.4 mph - 0.00 in Rain Light Rain
10:21 AM 55.4 °F 53.6 °F 94% 29.60 in 1.0 mi ENE 11.5 mph - 0.01 in Rain Light Rain
10:29 AM 55.4 °F 53.6 °F 94% 29.59 in 1.5 mi NE 11.5 mph - 0.01 in Rain Light Rain
10:43 AM 55.4 °F 53.6 °F 94% 29.58 in 1.0 mi ENE 10.4 mph - 0.02 in Rain Light Rain
10:51 AM 54.9 °F 52.9 °F 93% 29.59 in 1.0 mi ENE 12.7 mph - 0.03 in Rain Light Rain
10:58 AM 55.4 °F 53.6 °F 94% 29.57 in 1.5 mi NE 13.8 mph - 0.00 in Rain Light Rain
11:08 AM 55.4 °F 53.6 °F 94% 29.57 in 1.0 mi NE 16.1 mph - 0.01 in Rain Rain
11:24 AM 55.4 °F 53.6 °F 94% 29.57 in 1.5 mi ENE 15.0 mph 23.0 mph 0.02 in Rain Light Rain
11:51 AM 56.8 °F 54.0 °F 90% 29.56 in 1.5 mi NE 16.1 mph 27.6 mph 0.03 in Rain Light Rain
12:51 PM 56.8 °F 54.0 °F 90% 29.50 in 1.8 mi ENE 19.6 mph 28.8 mph 0.01 in Rain Light Rain
1:51 PM 56.8 °F 54.0 °F 90% 29.44 in 1.2 mi NE 21.9 mph 33.4 mph 0.02 in Rain Light Rain
2:51 PM 57.9 °F 54.9 °F 90% 29.38 in 1.8 mi ENE 24.2 mph 40.3 mph 0.04 in Rain Light Rain
3:51 PM 56.8 °F 54.9 °F 93% 29.34 in 0.5 mi NE 26.5 mph 43.7 mph 0.25 in Fog , Rain Heavy Rain
4:51 PM 57.9 °F 54.9 °F 90% 29.31 in 0.5 mi NE 23.0 mph 42.6 mph 0.17 in Fog , Rain Heavy Rain
5:56 PM 59.0 °F 55.4 °F 88% 29.31 in 1.2 mi East 25.3 mph - 0.02 in Fog , Rain Heavy Rain
6:04 PM 59.0 °F 55.4 °F 88% 29.32 in 1.0 mi East 21.9 mph 35.7 mph 0.09 in Fog , Rain Heavy Rain
6:06 PM 59.0 °F 55.4 °F 88% 29.30 in 1.2 mi East 25.3 mph 35.7 mph 0.09 in Fog , Rain Heavy Rain
6:16 PM 59.0 °F 57.2 °F 94% 29.30 in 1.0 mi East 32.2 mph 40.3 mph 0.13 in Fog , Rain Heavy Rain
6:26 PM 60.8 °F 57.2 °F 88% 29.30 in 1.5 mi East 23.0 mph - 0.16 in Fog , Rain Heavy Rain
6:35 PM 60.8 °F 57.2 °F 88% 29.30 in 1.0 mi East 31.1 mph 47.2 mph 0.19 in Fog , Rain Heavy Rain
6:43 PM 60.8 °F 57.2 °F 88% 29.30 in 1.5 mi East 26.5 mph 46.0 mph 0.20 in Fog , Rain Heavy Rain
6:51 PM 59.9 °F 57.9 °F 93% 29.31 in 1.8 mi East 32.2 mph 43.7 mph 0.23 in Fog , Rain Heavy Rain
7:09 PM 60.8 °F 57.2 °F 88% 29.31 in 3.0 mi East 29.9 mph 43.7 mph 0.03 in Fog , Rain Heavy Rain
7:34 PM 60.8 °F 57.2 °F 88% 29.29 in 2.0 mi East 28.8 mph 44.9 mph 0.05 in Fog , Rain Heavy Rain
7:51 PM 61.0 °F 57.9 °F 90% 29.29 in 3.0 mi East 27.6 mph 43.7 mph 0.06 in Fog , Rain Heavy Rain
8:20 PM 60.8 °F 57.2 °F 88% 29.26 in 1.8 mi East 25.3 mph 41.4 mph 0.04 in Fog , Rain Heavy Rain
8:23 PM 60.8 °F 57.2 °F 88% 29.26 in 1.0 mi East 29.9 mph 41.4 mph 0.08 in Fog , Rain Heavy Rain
8:26 PM 60.8 °F 57.2 °F 88% 29.26 in 0.8 mi East 24.2 mph 41.4 mph 0.09 in Fog , Rain Heavy Rain
8:31 PM 60.8 °F 57.2 °F 88% 29.26 in 1.2 mi East 33.4 mph 39.1 mph 0.09 in Fog , Rain Heavy Rain
8:33 PM 60.8 °F 57.2 °F 88% 29.26 in 2.0 mi East 25.3 mph 39.1 mph 0.09 in Fog , Rain Heavy Rain
8:39 PM 60.8 °F 57.2 °F 88% 29.26 in 4.0 mi East 28.8 mph 44.9 mph 0.10 in Fog , Rain Heavy Rain
8:51 PM 61.0 °F 57.9 °F 90% 29.26 in 2.5 mi East 23.0 mph 38.0 mph 0.11 in Fog , Rain Heavy Rain
9:05 PM 60.8 °F 59.0 °F 94% 29.25 in 1.2 mi East 25.3 mph - 0.05 in Fog , Rain Heavy Rain
9:27 PM 60.8 °F 57.2 °F 88% 29.26 in 0.8 mi East 25.3 mph - 0.22 in Fog , Rain Heavy Rain
9:32 PM 60.8 °F 57.2 °F 88% 29.26 in 1.2 mi East 26.5 mph 41.4 mph 0.26 in Fog , Rain Heavy Rain
9:40 PM 60.8 °F 57.2 °F 88% 29.26 in 1.0 mi East 26.5 mph 39.1 mph 0.33 in Fog , Rain Heavy Rain
9:51 PM 61.0 °F 57.9 °F 90% 29.30 in 1.2 mi SSE 12.7 mph 42.6 mph 0.40 in Fog , Rain Heavy Rain
9:55 PM 60.8 °F 57.2 °F 88% 29.29 in 1.0 mi SE 9.2 mph - 0.07 in Fog , Rain Heavy Rain
10:06 PM 60.8 °F 57.2 °F 88% 29.29 in 1.5 mi ESE 12.7 mph - 0.17 in Fog , Rain Heavy Rain
10:16 PM 60.8 °F 59.0 °F 94% 29.29 in 2.5 mi ESE 17.3 mph - 0.20 in Fog , Rain Heavy Rain
10:24 PM 62.6 °F 60.8 °F 94% 29.29 in 4.0 mi East 23.0 mph - 0.20 in Fog , Rain Heavy Rain
10:51 PM 63.0 °F 59.9 °F 90% 29.31 in 8.0 mi ESE 16.1 mph - 0.20 in Fog , Rain Heavy Rain
11:51 PM 63.0 °F 59.9 °F 90% 29.32 in 6.0 mi ESE 11.5 mph - 0.04 in Fog , Rain Heavy Rain